Content
SEND FEEDBACK

Daily
Averages
Monthly
Summary
Canada

DRUMHELLER, ALBERTA


Home > North America > Canada > Alberta
Elevation: 2254 feet     Latitude: 51 28N     Longitude: 112 43W

WEATHER
 
SELECT A DAY
Number of Records: 138,445;   Date Range: 1/1/95 - 9/17/14
 
SHARE

PRINT THIS DATA

[ ← Previous Day ]
WEATHER ALMANAC - FEBRUARY 16, 2013
[ Next Day → ]
[ °C ]   °F
Weather ElementAverageHighLow
Temperature25.6 °F37.2 °F (4:00 pm)8.8 °F (8:00 am)
Dewpoint20.6 °F29 °F (5:00 pm)6.8 °F (8:00 am)
Humidity81.1 %95 % (3:00 am)64 % (1:00 pm)
Barometer29.81 in29.99 in (1:00 am)29.65 in (5:00 pm)
Wind Speed2.9 mph6.9 mph (3:00 pm)
Weather ElementAverage
Wind DirectionS (184.1 °)

Weather ElementTotal
Precipitation---
Heating Degree Days42 (Base 65)
Averaged from 27 records on February 16, 2013
WEATHER CONDITIONS BREAKOUT
WIND DIRECTION BREAKOUT
WEATHER BY HOUR - FEBRUARY 16, 2013
[ °C ]   °F
Local TimeTemperatureDewpointHumidityBarometerVisibilityWind DirectionWind SpeedGust SpeedPrecipitationEventsConditions
1:00 AM22.3 °F19.4 °F89 %29.99 inNE (50°)2.3 mph
2:00 AM20.7 °F18.7 °F92 %29.99 inEast (80°)1.2 mph
3:00 AM17.8 °F16.5 °F95 %29.97 inSouth (180°)1.2 mph
4:00 AM15.8 °F14.4 °F94 %29.96 inNorth (350°)1.2 mph
5:00 AM14.0 °F12.0 °F89 %29.96 inWest (260°)1.2 mph
5:00 AM13.6 °F12.2 °F94 %29.96 inWest (260°)1.2 mph
6:00 AM11.5 °F9.9 °F93 %29.95 inCalm
7:00 AM9.7 °F7.9 °F92 %29.94 inCalm
8:00 AM8.8 °F6.8 °F92 %29.93 inCalm
9:00 AM14.4 °F12.0 °F90 %29.91 inNNW (340°)1.2 mph
10:00 AM20.7 °F17.6 °F88 %29.89 inCalm
11:00 AM26.0 °F20.0 °F70 %29.85 inEast (90°)1.2 mph
11:00 AM25.7 °F20.1 °F79 %29.85 inEast (90°)1.2 mph
12:00 PM31.6 °F23.0 °F70 %29.82 inEast (100°)1.2 mph
1:00 PM35.4 °F24.4 °F64 %29.77 inSSE (150°)3.5 mph
2:00 PM36.3 °F26.6 °F68 %29.73 inSSE (160°)5.8 mph
3:00 PM36.9 °F28.0 °F70 %29.69 inSSE (160°)6.9 mph
4:00 PM37.2 °F28.0 °F69 %29.67 inSSE (160°)4.6 mph
5:00 PM36.0 °F29.0 °F65 %29.65 inSouth (170°)3.5 mph
5:00 PM36.5 °F28.6 °F73 %29.65 inSouth (170°)3.5 mph
6:00 PM31.8 °F26.6 °F81 %29.68 inNW (310°)6.9 mph
7:00 PM31.6 °F26.8 °F82 %29.68 inWest (260°)5.8 mph
8:00 PM30.6 °F25.2 °F80 %29.68 inWNW (300°)4.6 mph
9:00 PM30.2 °F24.6 °F80 %29.68 inNW (310°)5.8 mph
10:00 PM29.7 °F24.1 °F80 %29.69 inNW (320°)4.6 mph
11:00 PM33.0 °F27.0 °F72 %29.68 inNorth (350°)4.6 mph
11:00 PM33.4 °F27.3 °F78 %29.68 inNorth (350°)4.6 mph
Hourly data recorded from CWDZ, located miles away from Drumheller, Alberta







STORIES FROM OUR PARTNERS